When you browse on this site, cookies collect data to enhance your experience and personalize the content and advertising you see.
Visit our Privacy Policy to learn more. By continuing to use the site, you agree to this use of cookies and data.
  • In France
  • List of Countries
  • For 7 days
  • Water Temperature
  • Satellite Maps
  • Weather Map
  • Weather Widgets
  • user-avatar
    Login

    Hourly Weather Canberra

    Today, 19 February, Tuesday

    Time Temperature Precipitation Wind Pressure Humidity
    00:00 +22°C° 0 mm 1 mps 703 mmHg 67%
    01:00 +20°C° 0 mm 0 mps 703 mmHg 68%
    02:00 +19°C° 0 mm 0 mps 703 mmHg 70%
    03:00 +18°C° 0 mm 0 mps 703 mmHg 72%
    04:00 +20°C° 0 mm 1 mps 703 mmHg 71%
    05:00 +21°C° 0 mm 1 mps 703 mmHg 69%
    06:00 +21°C° 0 mm 1 mps 703 mmHg 68%
    07:00 +22°C° 0 mm 1 mps 704 mmHg 66%
    08:00 +24°C° 0 mm 2 mps 704 mmHg 53%
    09:00 +27°C° 0 mm 2 mps 705 mmHg 39%
    10:00 +29°C° 0 mm 2 mps 706 mmHg 35%
    11:00 +30°C° 0 mm 3 mps 706 mmHg 28%
    12:00 +32°C° 0 mm 4 mps 705 mmHg 20%
    13:00 +34°C° 0 mm 5 mps 705 mmHg 12%
    14:00 +33°C° 0 mm 5 mps 705 mmHg 12%
    15:00 +33°C° 0 mm 4 mps 705 mmHg 11%
    16:00 +32°C° 0 mm 4 mps 705 mmHg 14%
    17:00 +28°C° 0 mm 4 mps 706 mmHg 27%
    18:00 +23°C° 0 mm 4 mps 706 mmHg 40%
    19:00 +20°C° 0 mm 4 mps 706 mmHg 54%
    20:00 +19°C° 0 mm 4 mps 706 mmHg 63%
    21:00 +17°C° 0 mm 4 mps 707 mmHg 73%
    22:00 +15°C° 0 mm 4 mps 707 mmHg 82%
    23:00 +15°C° 0 mm 4 mps 707 mmHg 83%

    Tomorrow, 20 February, Wednesday

    Time Temperature Precipitation Wind Pressure Humidity
    00:00 +16°C° 0 mm 3 mps 707 mmHg 83%
    01:00 +14°C° 0 mm 3 mps 707 mmHg 83%
    02:00 +15°C° 0 mm 2 mps 707 mmHg 84%
    03:00 +15°C° 0 mm 2 mps 707 mmHg 84%
    04:00 +15°C° 0 mm 1 mps 707 mmHg 84%
    05:00 +15°C° 0 mm 1 mps 707 mmHg 84%
    06:00 +15°C° 0 mm 1 mps 707 mmHg 83%
    07:00 +15°C° 0 mm 1 mps 707 mmHg 83%
    08:00 +18°C° 0 mm 1 mps 708 mmHg 73%
    09:00 +20°C° 0 mm 1 mps 708 mmHg 62%
    10:00 +23°C° 0 mm 1 mps 708 mmHg 52%
    11:00 +25°C° 0 mm 1 mps 708 mmHg 45%
    12:00 +27°C° 0 mm 1 mps 708 mmHg 37%
    13:00 +29°C° 0 mm 2 mps 708 mmHg 30%
    14:00 +29°C° 0 mm 2 mps 707 mmHg 28%
    15:00 +30°C° 0 mm 2 mps 707 mmHg 26%
    16:00 +30°C° 0 mm 2 mps 707 mmHg 24%
    17:00 +27°C° 0 mm 3 mps 707 mmHg 36%
    18:00 +23°C° 0 mm 4 mps 707 mmHg 49%
    19:00 +21°C° 0 mm 4 mps 707 mmHg 62%
    20:00 +19°C° 0 mm 4 mps 707 mmHg 69%
    21:00 +18°C° 0 mm 4 mps 708 mmHg 75%
    22:00 +17°C° 0 mm 3 mps 709 mmHg 82%
    23:00 +17°C° 0 mm 3 mps 709 mmHg 82%

    Day after tomorrow, 21 February, Thursday

    Time Temperature Precipitation Wind Pressure Humidity
    00:00 +17°C° 0 mm 3 mps 709 mmHg 82%
    01:00 +17°C° 0 mm 2 mps 709 mmHg 82%
    02:00 +16°C° 0 mm 2 mps 709 mmHg 83%
    03:00 +16°C° 0 mm 2 mps 708 mmHg 83%
    04:00 +16°C° 0 mm 2 mps 708 mmHg 84%
    05:00 +16°C° 0 mm 2 mps 709 mmHg 84%
    06:00 +16°C° 0 mm 2 mps 709 mmHg 84%
    07:00 +17°C° 0 mm 2 mps 710 mmHg 84%
    08:00 +18°C° 0 mm 2 mps 710 mmHg 76%
    09:00 +19°C° 0 mm 2 mps 710 mmHg 69%
    10:00 +21°C° 0 mm 3 mps 711 mmHg 62%
    11:00 +22°C° 0 mm 3 mps 711 mmHg 57%
    12:00 +24°C° 0 mm 3 mps 710 mmHg 52%
    13:00 +25°C° 0 mm 3 mps 710 mmHg 48%
    14:00 +25°C° 0 mm 4 mps 710 mmHg 48%
    15:00 +25°C° 0 mm 4 mps 710 mmHg 48%
    16:00 +25°C° 0 mm 4 mps 709 mmHg 48%
    17:00 +22°C° 0 mm 4 mps 709 mmHg 58%
    18:00 +20°C° 0 mm 4 mps 710 mmHg 67%
    19:00 +18°C° 0 mm 4 mps 710 mmHg 76%
    20:00 +17°C° 0 mm 4 mps 711 mmHg 80%
    21:00 +15°C° 0 mm 4 mps 711 mmHg 84%
    22:00 +14°C° 0 mm 4 mps 712 mmHg 87%
    23:00 +14°C° 0 mm 3 mps 712 mmHg 85%

    22 February, Friday

    Time Temperature Precipitation Wind Pressure Humidity
    00:00 +14°C° 0 mm 3 mps 712 mmHg 84%
    01:00 +14°C° 0 mm 3 mps 712 mmHg 82%
    02:00 +13°C° 0 mm 3 mps 712 mmHg 84%
    03:00 +13°C° 0 mm 3 mps 712 mmHg 86%
    04:00 +13°C° 0 mm 2 mps 712 mmHg 88%
    05:00 +13°C° 0 mm 2 mps 712 mmHg 83%
    06:00 +12°C° 0 mm 3 mps 712 mmHg 79%
    07:00 +13°C° 0 mm 3 mps 713 mmHg 75%
    08:00 +16°C° 0 mm 3 mps 713 mmHg 62%
    09:00 +19°C° 0 mm 3 mps 714 mmHg 49%
    10:00 +21°C° 0 mm 4 mps 714 mmHg 36%
    11:00 +23°C° 0 mm 4 mps 714 mmHg 33%
    12:00 +26°C° 0 mm 4 mps 714 mmHg 30%
    13:00 +27°C° 0 mm 4 mps 714 mmHg 27%
    14:00 +27°C° 0 mm 4 mps 713 mmHg 29%
    15:00 +27°C° 0 mm 4 mps 713 mmHg 31%
    16:00 +26°C° 0 mm 5 mps 712 mmHg 34%
    17:00 +23°C° 0 mm 5 mps 713 mmHg 45%
    18:00 +20°C° 0 mm 5 mps 713 mmHg 57%
    19:00 +17°C° 0 mm 4 mps 713 mmHg 69%
    20:00 +15°C° 0 mm 4 mps 713 mmHg 74%
    21:00 +14°C° 0 mm 4 mps 714 mmHg 79%
    22:00 +13°C° 0 mm 3 mps 714 mmHg 83%
    23:00 +14°C° 0 mm 3 mps 714 mmHg 82%

    23 February, Saturday

    Time Temperature Precipitation Wind Pressure Humidity
    00:00 +14°C° 0 mm 3 mps 714 mmHg 80%
    01:00 +14°C° 0 mm 3 mps 714 mmHg 79%
    02:00 +13°C° 0 mm 3 mps 714 mmHg 83%
    03:00 +13°C° 0 mm 2 mps 714 mmHg 87%
    04:00 +12°C° 0 mm 2 mps 713 mmHg 92%
    05:00 +13°C° 0 mm 2 mps 714 mmHg 86%
    06:00 +13°C° 0 mm 2 mps 714 mmHg 81%
    07:00 +14°C° 0 mm 2 mps 715 mmHg 76%
    08:00 +17°C° 0 mm 3 mps 715 mmHg 62%
    09:00 +20°C° 0 mm 3 mps 716 mmHg 48%
    10:00 +22°C° 0 mm 3 mps 716 mmHg 34%
    11:00 +25°C° 0 mm 3 mps 716 mmHg 31%
    12:00 +27°C° 0 mm 4 mps 716 mmHg 28%
    13:00 +28°C° 0 mm 4 mps 716 mmHg 25%
    14:00 +28°C° 0 mm 4 mps 715 mmHg 27%
    15:00 +28°C° 0 mm 4 mps 715 mmHg 29%
    16:00 +28°C° 0 mm 5 mps 715 mmHg 31%
    17:00 +25°C° 0 mm 4 mps 715 mmHg 43%
    18:00 +21°C° 0 mm 4 mps 715 mmHg 55%
    19:00 +18°C° 0 mm 4 mps 715 mmHg 67%
    20:00 +17°C° 0 mm 4 mps 716 mmHg 73%
    21:00 +15°C° 0 mm 4 mps 716 mmHg 79%
    22:00 +14°C° 0 mm 3 mps 717 mmHg 85%
    23:00 +14°C° 0 mm 4 mps 717 mmHg 82%

    24 February, Sunday

    Time Temperature Precipitation Wind Pressure Humidity
    00:00 +15°C° 0 mm 4 mps 717 mmHg 79%
    01:00 +15°C° 0 mm 4 mps 717 mmHg 76%
    02:00 +14°C° 0 mm 4 mps 717 mmHg 77%
    03:00 +13°C° 0 mm 3 mps 717 mmHg 78%
    04:00 +13°C° 0 mm 3 mps 716 mmHg 79%
    05:00 +13°C° 0 mm 3 mps 717 mmHg 76%
    06:00 +13°C° 0 mm 4 mps 717 mmHg 73%
    07:00 +13°C° 0 mm 4 mps 718 mmHg 71%
    08:00 +15°C° 0 mm 4 mps 718 mmHg 60%
    09:00 +19°C° 0 mm 4 mps 719 mmHg 49%
    10:00 +21°C° 0 mm 4 mps 719 mmHg 38%
    11:00 +23°C° 0 mm 4 mps 719 mmHg 34%
    12:00 +25°C° 0 mm 4 mps 718 mmHg 30%
    13:00 +27°C° 0 mm 4 mps 718 mmHg 26%
    14:00 +27°C° 0 mm 4 mps 718 mmHg 28%
    15:00 +26°C° 0 mm 4 mps 718 mmHg 30%
    16:00 +26°C° 0 mm 5 mps 717 mmHg 31%
    17:00 +23°C° 0 mm 5 mps 718 mmHg 42%
    18:00 +20°C° 0 mm 4 mps 718 mmHg 53%
    19:00 +17°C° 0 mm 4 mps 718 mmHg 64%
    20:00 +15°C° 0 mm 4 mps 718 mmHg 73%
    21:00 +13°C° 0 mm 3 mps 718 mmHg 81%
    22:00 +12°C° 0 mm 3 mps 718 mmHg 90%
    23:00 +12°C° 0 mm 2 mps 718 mmHg 92%
    Show more